Location: Ajisawe
(8.4333°N, 4.3833°E)
Time: 11:09:28
(UTC+00:00)

Vanguard 2 Rocket - Pass Details

Date: 23 April 2021
Orbit: 553 x 3326 km, 32.9° (Epoch: 07 May)

Event Time Altitude Azimuth Distance (km) Brightness Sun altitude
Rises 07:02:51 0° 198° (SSW) 3,722 9.8 21.7°
Reaches altitude 10° 07:05:49 10° 182° (S) 3,106 9.6 22.5°
Maximum altitude 07:11:47 22° 133° (SE) 2,940 10.2 23.9°
Drops below altitude 10° 07:20:26 10° 88° (E) 4,713 12.3 26.0°
Sets 07:26:22 0° 76° (ENE) 6,257 12.5 27.5°
